Погода в Тернате

Индонезия     0°49′59″N   127°20′39″E
темп.,
°C
ветер,
м/с
пор.,
м/с
влажн.,
%
обл.,
%
осадки,
мм/ч
давл.,
гПа
погр.,
м
2 марта, вт
вт200:00+27с4681100 1.8 1011660
03:00+27ссз4583100 2.6 1009576
06:00+27ссз5782100 2.8 1009542
09:00+26ссв3473100 4.6 1012505
12:00+25вюв3378100 0.5 1012185
15:00+26в2375100 0.5 1009387
18:00+27ссв2473100 0.1 1010585
21:00+27ссв3477100 0.4 1012515
3 марта, ср
ср300:00+26всв2277100 0.3 1012315
03:00+26всв1275100 0.3 1009198
06:00+26св3377100 0.0 1009287
09:00+27ссв4574100 0.0 1012469
12:00+28ссв126393 0.0 1011679
15:00+29сз336058 0.0 1008926
18:00+28ссз557312 0.0 1008846
21:00+27ссв46796 0.1 1011603
4 марта, чт
чт400:00+27св33790 0.0 1011454
03:00+26вюв11788 0.1 1009345
06:00+26в22790 0.1 1010354
09:00+27всв227834 0.1 1012396
12:00+29з217014 0.1 1011522
15:00+28з337425 0.4 1009670
18:00+28з227399 0.8 1009644
21:00+27сз127397 1.4 1011534
5 марта, пт
пт500:00+27ссз117587 0.6 1011337
03:00+27с117584 1.1 1009396
06:00+27с017597 0.0 1010433
09:00+27юв117375 0.0 1012480
12:00+28юз227175 0.3 1011580
15:00+27з337688 3.8 1009326
18:00+26с6682100 2.8 1009438
21:00+26ссв6884100 4.7 1011608
6 марта, сб
сб600:00+25ссв6789100 5.2 1012422
03:00+25ссв3486100 7.8 1009254
06:00+25св3376100 0.2 1009263
09:00+26всв3478100 0.3 1011365
12:00+27ссв2369100 0.0 1010626
15:00+28сз3368100 0.0 1008732
18:00+27с4577100 1.2 1009491
21:00+27ссв4477100 4.1 1011403